| time (UTC) | temp C | wind direction | speed KPH | gust KPH | rain 1hr cm | rain 24hr cm | rain mn cm | humidity % | barometer mb |
| 20260509185726 | 19 | 64 | 9.7 | 14.5 | 0.00 | 0.00 | 0.00 | 55 | 1009.8 |
| 20260509185223 | 19 | 339 | 4.8 | 12.9 | 0.00 | 0.00 | 0.00 | 56 | 1009.8 |
| 20260509184720 | 20 | 27 | 1.6 | 14.5 | 0.00 | 0.00 | 0.00 | 56 | 1009.9 |
| 20260509184218 | 20 | 19 | 9.7 | 22.5 | 0.00 | 0.00 | 0.00 | 58 | 1009.9 |
| 20260509183714 | 20 | 278 | 9.7 | 14.5 | 0.00 | 0.00 | 0.00 | 56 | 1010.1 |
| 20260509183209 | 19 | 40 | 6.4 | 12.9 | 0.00 | 0.00 | 0.00 | 56 | 1010.2 |
| 20260509182704 | 19 | 18 | 9.7 | 12.9 | 0.00 | 0.00 | 0.00 | 58 | 1010.2 |
| 20260509182203 | 19 | 335 | 9.7 | 12.9 | 0.00 | 0.00 | 0.00 | 57 | 1010.4 |
| 20260509181700 | 18 | 359 | 8.0 | 9.7 | 0.00 | 0.00 | 0.00 | 61 | 1010.3 |
| 20260509181157 | 18 | 305 | 9.7 | 9.7 | 0.00 | 0.00 | 0.00 | 60 | 1010.3 |
| 20260509180654 | 18 | 316 | 6.4 | 12.9 | 0.00 | 0.00 | 0.00 | 61 | 1010.6 |
| 20260509180150 | 18 | 291 | 11.3 | 14.5 | 0.00 | 0.00 | 0.00 | 62 | 1010.4 |
| 20260509175646 | 18 | 54 | 8.0 | 12.9 | 0.00 | 0.00 | 0.00 | 62 | 1010.7 |
| 20260509175143 | 18 | 294 | 3.2 | 9.7 | 0.00 | 0.00 | 0.00 | 63 | 1010.9 |
| 20260509174639 | 17 | 292 | 1.6 | 11.3 | 0.00 | 0.00 | 0.00 | 64 | 1011.1 |
| 20260509174134 | 17 | 312 | 6.4 | 9.7 | 0.00 | 0.00 | 0.00 | 66 | 1011.3 |
| 20260509173630 | 17 | 287 | 1.6 | 9.7 | 0.00 | 0.00 | 0.00 | 65 | 1011.4 |
| 20260509173126 | 17 | 326 | 4.8 | 6.4 | 0.00 | 0.00 | 0.00 | 66 | 1011.5 |
| 20260509172623 | 17 | 262 | 4.8 | 6.4 | 0.00 | 0.00 | 0.00 | 67 | 1011.5 |
| 20260509172119 | 17 | 301 | 6.4 | 12.9 | 0.00 | 0.00 | 0.00 | 67 | 1011.5 |
| 20260509171615 | 16 | 268 | 1.6 | 4.8 | 0.00 | 0.00 | 0.00 | 67 | 1011.7 |
| 20260509171111 | 16 | 213 | 1.6 | 1.6 | 0.00 | 0.00 | 0.00 | 66 | 1011.7 |
| 20260509170607 | 16 | 135 | 1.6 | 3.2 | 0.00 | 0.00 | 0.00 | 66 | 1012.1 |
| 20260509170104 | 16 | 300 | 1.6 | 9.7 | 0.00 | 0.00 | 0.00 | 66 | 1012.2 |
| 20260509165602 | 16 | 267 | 4.8 | 6.4 | 0.00 | 0.00 | 0.00 | 68 | 1012.0 |
| 20260509165058 | 16 | 209 | 6.4 | 11.3 | 0.00 | 0.00 | 0.00 | 69 | 1012.0 |
| 20260509164554 | 16 | 311 | 4.8 | 4.8 | 0.00 | 0.00 | 0.00 | 69 | 1012.0 |
| 20260509164050 | 16 | 273 | 6.4 | 11.3 | 0.00 | 0.00 | 0.00 | 68 | 1011.8 |
| 20260509163548 | 16 | 248 | 3.2 | 6.4 | 0.00 | 0.00 | 0.00 | 68 | 1011.7 |
| 20260509163043 | 16 | 336 | 6.4 | 11.3 | 0.00 | 0.00 | 0.00 | 68 | 1011.7 |
| 20260509162540 | 16 | 241 | 6.4 | 9.7 | 0.00 | 0.00 | 0.00 | 68 | 1011.6 |
| 20260509162036 | 16 | 252 | 6.4 | 12.9 | 0.00 | 0.00 | 0.00 | 67 | 1011.6 |
| 20260509161528 | 16 | 246 | 9.7 | 16.1 | 0.00 | 0.00 | 0.00 | 69 | 1011.3 |
| 20260509161027 | 16 | 185 | 9.7 | 12.9 | 0.00 | 0.00 | 0.00 | 68 | 1011.6 |
| 20260509160523 | 16 | 282 | 6.4 | 9.7 | 0.00 | 0.00 | 0.00 | 68 | 1011.8 |
| 20260509160019 | 16 | 242 | 8.0 | 11.3 | 0.00 | 0.00 | 0.00 | 68 | 1011.6 |
| 20260509155515 | 16 | 283 | 8.0 | 12.9 | 0.00 | 0.00 | 0.00 | 68 | 1011.9 |
| 20260509155011 | 16 | 284 | 3.2 | 9.7 | 0.00 | 0.00 | 0.00 | 67 | 1012.0 |
| 20260509154508 | 16 | 301 | 0.0 | 6.4 | 0.00 | 0.00 | 0.00 | 67 | 1012.1 |
| 20260509154006 | 16 | 239 | 6.4 | 9.7 | 0.00 | 0.00 | 0.00 | 66 | 1011.6 |
| 20260509153502 | 16 | 334 | 3.2 | 12.9 | 0.00 | 0.00 | 0.00 | 67 | 1011.8 |
| 20260509152959 | 16 | 308 | 0.0 | 4.8 | 0.00 | 0.00 | 0.00 | 66 | 1012.0 |
| 20260509152455 | 16 | 326 | 4.8 | 6.4 | 0.00 | 0.00 | 0.00 | 65 | 1012.0 |
| 20260509151952 | 16 | 259 | 6.4 | 11.3 | 0.00 | 0.00 | 0.00 | 66 | 1011.9 |
| 20260509151448 | 15 | 288 | 0.0 | 9.7 | 0.00 | 0.00 | 0.00 | 68 | 1011.9 |
| 20260509150947 | 15 | 264 | 6.4 | 9.7 | 0.00 | 0.00 | 0.00 | 67 | 1012.0 |
| 20260509150443 | 15 | 324 | 8.0 | 11.3 | 0.00 | 0.00 | 0.00 | 68 | 1011.9 |
| 20260509145942 | 15 | 317 | 8.0 | 11.3 | 0.00 | 0.00 | 0.00 | 70 | 1011.9 |
| 20260509145437 | 15 | 256 | 8.0 | 11.3 | 0.00 | 0.00 | 0.00 | 70 | 1011.8 |
| 20260509144932 | 15 | 258 | 3.2 | 6.4 | 0.00 | 0.00 | 0.00 | 69 | 1011.9 |
| 20260509144430 | 15 | 268 | 4.8 | 6.4 | 0.00 | 0.00 | 0.00 | 69 | 1012.0 |
| 20260509143926 | 15 | 278 | 6.4 | 6.4 | 0.00 | 0.00 | 0.00 | 69 | 1012.3 |
| 20260509143424 | 15 | 271 | 6.4 | 11.3 | 0.00 | 0.00 | 0.00 | 71 | 1012.2 |
| 20260509142920 | 15 | 222 | 3.2 | 6.4 | 0.00 | 0.00 | 0.00 | 70 | 1012.2 |
| 20260509142417 | 14 | 271 | 3.2 | 4.8 | 0.00 | 0.00 | 0.00 | 71 | 1012.3 |
| 20260509141912 | 14 | 300 | 1.6 | 6.4 | 0.00 | 0.00 | 0.00 | 72 | 1012.2 |
| 20260509141409 | 14 | 21 | 3.2 | 4.8 | 0.00 | 0.00 | 0.00 | 73 | 1012.3 |
| 20260509140906 | 14 | 224 | 0.0 | 0.0 | 0.00 | 0.00 | 0.00 | 72 | 1012.3 |
| 20260509140402 | 13 | 325 | 1.6 | 3.2 | 0.00 | 0.00 | 0.00 | 74 | 1012.4 |
| 20260509135901 | 13 | 266 | 3.2 | 4.8 | 0.00 | 0.00 | 0.00 | 74 | 1012.1 |
| 20260509135358 | 13 | 241 | 6.4 | 9.7 | 0.00 | 0.00 | 0.00 | 74 | 1011.8 |
| 20260509134855 | 13 | 264 | 6.4 | 9.7 | 0.00 | 0.00 | 0.00 | 75 | 1011.7 |
| 20260509134352 | 13 | 322 | 3.2 | 9.7 | 0.00 | 0.00 | 0.00 | 75 | 1011.5 |
| 20260509133849 | 13 | 277 | 4.8 | 4.8 | 0.00 | 0.00 | 0.00 | 74 | 1011.8 |
| 20260509133346 | 13 | 317 | 1.6 | 6.4 | 0.00 | 0.00 | 0.00 | 74 | 1011.7 |
| 20260509132845 | 13 | 262 | 4.8 | 4.8 | 0.00 | 0.00 | 0.00 | 74 | 1011.7 |
| 20260509132343 | 13 | 283 | 4.8 | 4.8 | 0.00 | 0.00 | 0.00 | 74 | 1011.7 |
| 20260509131839 | 13 | 269 | 6.4 | 9.7 | 0.00 | 0.00 | 0.00 | 74 | 1011.6 |
| 20260509131336 | 13 | 282 | 4.8 | 4.8 | 0.00 | 0.00 | 0.00 | 73 | 1011.8 |
| 20260509130833 | 13 | 291 | 3.2 | 4.8 | 0.00 | 0.00 | 0.00 | 73 | 1011.7 |
| 20260509130328 | 13 | 255 | 3.2 | 4.8 | 0.00 | 0.00 | 0.00 | 73 | 1011.9 |
| 20260509125825 | 13 | 322 | 3.2 | 4.8 | 0.00 | 0.00 | 0.00 | 74 | 1011.8 |
| 20260509125321 | 13 | 317 | 1.6 | 1.6 | 0.00 | 0.00 | 0.00 | 72 | 1012.0 |
| 20260509124818 | 13 | 266 | 1.6 | 1.6 | 0.00 | 0.00 | 0.00 | 74 | 1011.9 |
| 20260509124314 | 12 | 180 | 0.0 | 1.6 | 0.00 | 0.00 | 0.00 | 76 | 1012.0 |
| 20260509123813 | 12 | 264 | 4.8 | 9.7 | 0.00 | 0.00 | 0.00 | 77 | 1011.6 |
| 20260509123310 | 12 | 249 | 6.4 | 9.7 | 0.00 | 0.00 | 0.00 | 77 | 1011.7 |
| 20260509122805 | 12 | 229 | 4.8 | 4.8 | 0.00 | 0.00 | 0.00 | 78 | 1011.7 |
| 20260509122305 | 12 | 289 | 3.2 | 3.2 | 0.00 | 0.00 | 0.00 | 78 | 1011.9 |
| 20260509121759 | 12 | 245 | 3.2 | 4.8 | 0.00 | 0.00 | 0.00 | 79 | 1011.9 |
| 20260509121256 | 12 | 243 | 3.2 | 4.8 | 0.00 | 0.00 | 0.00 | 80 | 1011.9 |
| 20260509120755 | 12 | 235 | 0.0 | 3.2 | 0.00 | 0.00 | 0.00 | 81 | 1012.1 |
| 20260509120252 | 12 | 241 | 3.2 | 3.2 | 0.00 | 0.00 | 0.00 | 81 | 1012.2 |
| 20260509115750 | 12 | 234 | 1.6 | 4.8 | 0.00 | 0.00 | 0.00 | 81 | 1012.1 |
| 20260509115247 | 12 | 261 | 3.2 | 4.8 | 0.00 | 0.00 | 0.00 | 78 | 1012.1 |
| 20260509114745 | 12 | 237 | 6.4 | 6.4 | 0.00 | 0.00 | 0.00 | 76 | 1012.1 |
| 20260509114244 | 12 | 212 | 1.6 | 3.2 | 0.00 | 0.00 | 0.00 | 74 | 1012.0 |
| 20260509113742 | 12 | 253 | 1.6 | 1.6 | 0.00 | 0.00 | 0.00 | 74 | 1011.9 |
| 20260509113239 | 12 | 221 | 3.2 | 3.2 | 0.00 | 0.00 | 0.00 | 74 | 1011.7 |
| 20260509112735 | 12 | 138 | 0.0 | 0.0 | 0.00 | 0.00 | 0.00 | 73 | 1011.6 |
| 20260509112233 | 12 | 283 | 0.0 | 0.0 | 0.00 | 0.00 | 0.00 | 74 | 1011.6 |
| 20260509111730 | 12 | 233 | 1.6 | 4.8 | 0.00 | 0.00 | 0.00 | 75 | 1011.7 |
| 20260509111226 | 12 | 245 | 4.8 | 6.4 | 0.00 | 0.00 | 0.00 | 75 | 1011.7 |
| 20260509110724 | 11 | 235 | 6.4 | 6.4 | 0.00 | 0.00 | 0.00 | 75 | 1011.6 |
| 20260509110220 | 11 | 227 | 4.8 | 9.7 | 0.00 | 0.00 | 0.00 | 74 | 1011.5 |
| 20260509105719 | 12 | 236 | 6.4 | 6.4 | 0.00 | 0.00 | 0.00 | 73 | 1011.6 |
| 20260509105216 | 12 | 244 | 9.7 | 9.7 | 0.00 | 0.00 | 0.00 | 71 | 1011.7 |
| 20260509104713 | 12 | 265 | 6.4 | 11.3 | 0.00 | 0.00 | 0.00 | 68 | 1011.4 |
| 20260509104210 | 13 | 217 | 6.4 | 6.4 | 0.00 | 0.00 | 0.00 | 64 | 1011.4 |
| 20260509103708 | 13 | 170 | 0.0 | 1.6 | 0.00 | 0.00 | 0.00 | 61 | 1011.3 |
| 20260509103205 | 13 | 144 | 0.0 | 0.0 | 0.00 | 0.00 | 0.00 | 62 | 1011.2 |
| 20260509102703 | 13 | 224 | 1.6 | 1.6 | 0.00 | 0.00 | 0.00 | 62 | 1011.3 |
| 20260509102159 | 13 | 166 | 0.0 | 1.6 | 0.00 | 0.00 | 0.00 | 61 | 1011.1 |
| 20260509101656 | 12 | 29 | 0.0 | 0.0 | 0.00 | 0.00 | 0.00 | 67 | 1011.2 |
| 20260509101152 | 12 | 8 | 0.0 | 0.0 | 0.00 | 0.00 | 0.00 | 64 | 1011.1 |
| 20260509100650 | 12 | 335 | 0.0 | 0.0 | 0.00 | 0.00 | 0.00 | 65 | 1011.2 |
| 20260509100147 | 12 | 335 | 0.0 | 0.0 | 0.00 | 0.00 | 0.00 | 65 | 1011.2 |
| 20260509095643 | 12 | 267 | 0.0 | 0.0 | 0.00 | 0.00 | 0.00 | 68 | 1011.1 |
| 20260509095141 | 12 | 245 | 0.0 | 1.6 | 0.00 | 0.00 | 0.00 | 66 | 1010.7 |
| 20260509094637 | 12 | 241 | 1.6 | 3.2 | 0.00 | 0.00 | 0.00 | 68 | 1011.1 |
| 20260509094134 | 12 | 248 | 0.0 | 0.0 | 0.00 | 0.00 | 0.00 | 68 | 1010.7 |
| 20260509093633 | 12 | 225 | 0.0 | 0.0 | 0.00 | 0.00 | 0.00 | 65 | 1011.0 |
| 20260509093129 | 12 | 223 | 0.0 | 0.0 | 0.00 | 0.00 | 0.00 | 64 | 1011.0 |
| 20260509092627 | 12 | 226 | 0.0 | 0.0 | 0.00 | 0.00 | 0.00 | 64 | 1010.9 |
| 20260509092126 | 12 | 226 | 0.0 | 0.0 | 0.00 | 0.00 | 0.00 | 64 | 1011.0 |
| 20260509091624 | 13 | 226 | 1.6 | 1.6 | 0.00 | 0.00 | 0.00 | 65 | 1011.0 |
| 20260509091119 | 13 | 211 | 1.6 | 3.2 | 0.00 | 0.00 | 0.00 | 60 | 1011.0 |
| 20260509090617 | 13 | 101 | 0.0 | 1.6 | 0.00 | 0.00 | 0.00 | 58 | 1011.0 |
| 20260509090114 | 13 | 110 | 1.6 | 4.8 | 0.00 | 0.00 | 0.00 | 57 | 1011.1 |
| 20260509085612 | 13 | 63 | 3.2 | 4.8 | 0.00 | 0.00 | 0.00 | 58 | 1011.1 |
| 20260509085107 | 13 | 66 | 6.4 | 9.7 | 0.00 | 0.00 | 0.00 | 58 | 1011.1 |
| 20260509084605 | 13 | 92 | 3.2 | 9.7 | 0.00 | 0.00 | 0.00 | 58 | 1011.1 |
| 20260509084057 | 13 | 92 | 3.2 | 6.4 | 0.00 | 0.00 | 0.00 | 59 | 1011.1 |
| 20260509083554 | 13 | 78 | 6.4 | 6.4 | 0.00 | 0.00 | 0.00 | 58 | 1011.0 |
| 20260509083050 | 13 | 96 | 3.2 | 6.4 | 0.00 | 0.00 | 0.00 | 59 | 1011.1 |
| 20260509082548 | 13 | 74 | 3.2 | 6.4 | 0.00 | 0.00 | 0.00 | 59 | 1011.2 |
| 20260509082045 | 13 | 95 | 4.8 | 6.4 | 0.00 | 0.00 | 0.00 | 59 | 1011.3 |
| 20260509081542 | 13 | 85 | 3.2 | 9.7 | 0.00 | 0.00 | 0.00 | 60 | 1011.1 |
| 20260509081038 | 13 | 63 | 1.6 | 4.8 | 0.00 | 0.00 | 0.00 | 62 | 1011.3 |
| 20260509080537 | 13 | 32 | 4.8 | 6.4 | 0.00 | 0.00 | 0.00 | 60 | 1011.2 |
| 20260509080035 | 13 | 55 | 4.8 | 9.7 | 0.00 | 0.00 | 0.00 | 59 | 1011.2 |
| 20260509075531 | 13 | 49 | 3.2 | 3.2 | 0.00 | 0.00 | 0.00 | 61 | 1011.2 |
| 20260509075030 | 14 | 31 | 3.2 | 4.8 | 0.00 | 0.00 | 0.00 | 59 | 1011.1 |
| 20260509074526 | 14 | 28 | 3.2 | 4.8 | 0.00 | 0.00 | 0.00 | 57 | 1011.3 |
| 20260509074023 | 14 | 76 | 4.8 | 6.4 | 0.00 | 0.00 | 0.00 | 56 | 1011.2 |
| 20260509073519 | 14 | 87 | 1.6 | 6.4 | 0.00 | 0.00 | 0.00 | 57 | 1011.3 |
| 20260509073016 | 14 | 83 | 4.8 | 4.8 | 0.00 | 0.00 | 0.00 | 57 | 1011.3 |
| 20260509072513 | 14 | 103 | 3.2 | 6.4 | 0.00 | 0.00 | 0.00 | 56 | 1011.3 |
| 20260509072009 | 14 | 127 | 11.3 | 16.1 | 0.00 | 0.00 | 0.00 | 56 | 1011.2 |
| 20260509071506 | 14 | 30 | 3.2 | 6.4 | 0.00 | 0.00 | 0.00 | 57 | 1011.2 |
| 20260509071004 | 14 | 64 | 4.8 | 11.3 | 0.00 | 0.00 | 0.00 | 57 | 1011.2 |
| 20260509070501 | 14 | 81 | 6.4 | 9.7 | 0.00 | 0.00 | 0.00 | 57 | 1011.4 |
| 20260509065956 | 14 | 101 | 3.2 | 4.8 | 0.00 | 0.00 | 0.00 | 57 | 1011.4 |
| 20260509065452 | 14 | 53 | 6.4 | 11.3 | 0.00 | 0.00 | 0.00 | 56 | 1011.4 |
| 20260509064948 | 14 | 63 | 4.8 | 11.3 | 0.00 | 0.00 | 0.00 | 58 | 1011.6 |
| 20260509064446 | 14 | 117 | 4.8 | 12.9 | 0.00 | 0.00 | 0.00 | 58 | 1011.4 |
| 20260509063944 | 13 | 49 | 4.8 | 9.7 | 0.00 | 0.00 | 0.00 | 59 | 1011.5 |
| 20260509063444 | 13 | 101 | 3.2 | 9.7 | 0.00 | 0.00 | 0.00 | 59 | 1011.5 |
| 20260509062941 | 13 | 96 | 3.2 | 9.7 | 0.00 | 0.00 | 0.00 | 60 | 1011.5 |
| 20260509062439 | 13 | 88 | 3.2 | 6.4 | 0.00 | 0.00 | 0.00 | 60 | 1011.8 |
| 20260509061936 | 13 | 134 | 3.2 | 6.4 | 0.00 | 0.00 | 0.00 | 60 | 1011.6 |
| 20260509061434 | 13 | 86 | 1.6 | 4.8 | 0.00 | 0.00 | 0.00 | 61 | 1011.7 |
| 20260509060930 | 13 | 122 | 1.6 | 4.8 | 0.00 | 0.00 | 0.00 | 61 | 1011.9 |
| 20260509060428 | 13 | 90 | 3.2 | 4.8 | 0.00 | 0.00 | 0.00 | 60 | 1011.6 |
| 20260509055923 | 13 | 123 | 3.2 | 6.4 | 0.00 | 0.00 | 0.00 | 60 | 1011.8 |
| 20260509055419 | 13 | 64 | 1.6 | 6.4 | 0.00 | 0.00 | 0.00 | 59 | 1011.9 |
| 20260509054915 | 13 | 43 | 3.2 | 3.2 | 0.00 | 0.00 | 0.00 | 60 | 1011.9 |
| 20260509054412 | 13 | 68 | 0.0 | 4.8 | 0.00 | 0.00 | 0.00 | 60 | 1011.8 |
| 20260509053911 | 13 | 111 | 1.6 | 3.2 | 0.00 | 0.00 | 0.00 | 60 | 1011.8 |
| 20260509053409 | 13 | 94 | 1.6 | 4.8 | 0.00 | 0.00 | 0.00 | 59 | 1011.9 |
| 20260509052906 | 13 | 75 | 3.2 | 4.8 | 0.00 | 0.00 | 0.00 | 60 | 1012.0 |
| 20260509052403 | 13 | 73 | 1.6 | 3.2 | 0.00 | 0.00 | 0.00 | 61 | 1011.9 |
| 20260509051901 | 13 | 15 | 1.6 | 4.8 | 0.00 | 0.00 | 0.00 | 61 | 1011.9 |
| 20260509051359 | 12 | 19 | 1.6 | 4.8 | 0.00 | 0.00 | 0.00 | 61 | 1012.0 |
| 20260509050855 | 12 | 16 | 1.6 | 1.6 | 0.00 | 0.00 | 0.00 | 62 | 1011.9 |
| 20260509050352 | 12 | 25 | 1.6 | 1.6 | 0.00 | 0.00 | 0.00 | 63 | 1011.8 |
| 20260509045848 | 12 | 45 | 0.0 | 1.6 | 0.00 | 0.00 | 0.00 | 64 | 1012.0 |
| 20260509045346 | 12 | 28 | 3.2 | 3.2 | 0.00 | 0.00 | 0.00 | 66 | 1011.8 |
| 20260509044843 | 11 | 12 | 1.6 | 3.2 | 0.00 | 0.00 | 0.00 | 68 | 1011.9 |
| 20260509044340 | 11 | 12 | 3.2 | 4.8 | 0.00 | 0.00 | 0.00 | 70 | 1011.7 |
| 20260509043836 | 11 | 25 | 1.6 | 3.2 | 0.00 | 0.00 | 0.00 | 71 | 1011.9 |
| 20260509043332 | 11 | 6 | 1.6 | 3.2 | 0.00 | 0.00 | 0.00 | 67 | 1012.0 |
| 20260509042828 | 12 | 29 | 0.0 | 0.0 | 0.00 | 0.00 | 0.00 | 63 | 1012.0 |
| 20260509042325 | 11 | 29 | 0.0 | 0.0 | 0.00 | 0.00 | 0.00 | 66 | 1012.1 |
| 20260509041822 | 11 | 3 | 0.0 | 0.0 | 0.00 | 0.00 | 0.00 | 68 | 1012.0 |
| 20260509041319 | 11 | 193 | 0.0 | 1.6 | 0.00 | 0.00 | 0.00 | 67 | 1012.2 |
| 20260509040817 | 11 | 185 | 3.2 | 4.8 | 0.00 | 0.00 | 0.00 | 67 | 1012.3 |
| 20260509040314 | 12 | 332 | 0.0 | 0.0 | 0.00 | 0.00 | 0.00 | 66 | 1012.4 |
| 20260509035811 | 12 | 6 | 0.0 | 1.6 | 0.00 | 0.00 | 0.00 | 65 | 1011.9 |
| 20260509035309 | 12 | 26 | 1.6 | 1.6 | 0.00 | 0.00 | 0.00 | 63 | 1012.0 |
| 20260509034804 | 12 | 8 | 0.0 | 1.6 | 0.00 | 0.00 | 0.00 | 62 | 1012.2 |
| 20260509034303 | 13 | 53 | 0.0 | 1.6 | 0.00 | 0.00 | 0.00 | 59 | 1012.3 |
| 20260509033759 | 12 | 49 | 0.0 | 0.0 | 0.00 | 0.00 | 0.00 | 61 | 1012.2 |
| 20260509033256 | 13 | 25 | 0.0 | 1.6 | 0.00 | 0.00 | 0.00 | 59 | 1012.2 |
| 20260509032753 | 13 | 12 | 1.6 | 3.2 | 0.00 | 0.00 | 0.00 | 59 | 1012.1 |
| 20260509032250 | 13 | 12 | 0.0 | 4.8 | 0.00 | 0.00 | 0.00 | 59 | 1012.3 |
| 20260509031748 | 13 | 32 | 3.2 | 3.2 | 0.00 | 0.00 | 0.00 | 59 | 1012.2 |
| 20260509031245 | 13 | 18 | 3.2 | 3.2 | 0.00 | 0.00 | 0.00 | 60 | 1012.0 |
| 20260509030743 | 13 | 35 | 1.6 | 4.8 | 0.00 | 0.00 | 0.00 | 60 | 1012.1 |
| 20260509030240 | 13 | 35 | 3.2 | 4.8 | 0.00 | 0.00 | 0.00 | 60 | 1012.0 |
| 20260509025737 | 13 | 13 | 3.2 | 4.8 | 0.00 | 0.00 | 0.00 | 59 | 1012.2 |
| 20260509025232 | 13 | 18 | 0.0 | 3.2 | 0.00 | 0.00 | 0.00 | 58 | 1012.4 |
| 20260509024728 | 13 | 30 | 1.6 | 3.2 | 0.00 | 0.00 | 0.00 | 56 | 1012.6 |
| 20260509024224 | 13 | 17 | 1.6 | 3.2 | 0.00 | 0.00 | 0.00 | 57 | 1012.4 |
| 20260509023722 | 13 | 27 | 0.0 | 3.2 | 0.00 | 0.00 | 0.00 | 57 | 1012.5 |
| 20260509023219 | 13 | 354 | 1.6 | 3.2 | 0.00 | 0.00 | 0.00 | 58 | 1012.5 |
| 20260509022714 | 13 | 12 | 0.0 | 1.6 | 0.00 | 0.00 | 0.00 | 58 | 1012.6 |
| 20260509022213 | 14 | 320 | 0.0 | 0.0 | 0.00 | 0.00 | 0.00 | 58 | 1012.5 |
| 20260509021709 | 14 | 327 | 3.2 | 3.2 | 0.00 | 0.00 | 0.00 | 55 | 1012.6 |
| 20260509021207 | 14 | 10 | 1.6 | 3.2 | 0.00 | 0.00 | 0.00 | 54 | 1012.5 |
| 20260509020705 | 13 | 333 | 1.6 | 3.2 | 0.00 | 0.00 | 0.00 | 57 | 1012.5 |
| 20260509020201 | 14 | 1 | 0.0 | 0.0 | 0.00 | 0.00 | 0.00 | 56 | 1012.7 |
| 20260509015700 | 15 | 337 | 1.6 | 1.6 | 0.00 | 0.00 | 0.00 | 55 | 1012.5 |
| 20260509015158 | 15 | 334 | 0.0 | 1.6 | 0.00 | 0.00 | 0.00 | 54 | 1012.5 |
| 20260509014654 | 15 | 355 | 1.6 | 3.2 | 0.00 | 0.00 | 0.00 | 55 | 1012.5 |
| 20260509014150 | 14 | 348 | 1.6 | 3.2 | 0.00 | 0.00 | 0.00 | 55 | 1012.3 |
| 20260509013647 | 14 | 338 | 3.2 | 3.2 | 0.00 | 0.00 | 0.00 | 57 | 1012.6 |
| 20260509013143 | 13 | 348 | 1.6 | 3.2 | 0.00 | 0.00 | 0.00 | 59 | 1012.4 |
| 20260509012640 | 13 | 355 | 0.0 | 0.0 | 0.00 | 0.00 | 0.00 | 58 | 1012.6 |
| 20260509012137 | 14 | 342 | 0.0 | 0.0 | 0.00 | 0.00 | 0.00 | 58 | 1012.5 |
| 20260509011635 | 14 | 312 | 0.0 | 1.6 | 0.00 | 0.00 | 0.00 | 58 | 1012.5 |
| 20260509011132 | 14 | 359 | 0.0 | 1.6 | 0.00 | 0.00 | 0.00 | 59 | 1012.5 |
| 20260509010629 | 15 | 359 | 0.0 | 0.0 | 0.00 | 0.00 | 0.00 | 56 | 1012.4 |
| 20260509010125 | 15 | 359 | 0.0 | 1.6 | 0.00 | 0.00 | 0.00 | 54 | 1012.3 |
| 20260509005623 | 16 | 356 | 0.0 | 0.0 | 0.00 | 0.00 | 0.00 | 54 | 1012.2 |
| 20260509005119 | 16 | 356 | 0.0 | 1.6 | 0.00 | 0.00 | 0.00 | 50 | 1012.4 |
| 20260509004615 | 16 | 355 | 1.6 | 1.6 | 0.00 | 0.00 | 0.00 | 51 | 1012.4 |
| 20260509004112 | 17 | 327 | 0.0 | 1.6 | 0.00 | 0.00 | 0.00 | 49 | 1012.4 |
| 20260509003611 | 17 | 319 | 1.6 | 1.6 | 0.00 | 0.00 | 0.00 | 47 | 1012.6 |
| 20260509003108 | 17 | 329 | 1.6 | 1.6 | 0.00 | 0.00 | 0.00 | 48 | 1012.3 |
| 20260509002605 | 17 | 319 | 0.0 | 0.0 | 0.00 | 0.00 | 0.00 | 50 | 1012.6 |
| 20260509002103 | 17 | 349 | 1.6 | 1.6 | 0.00 | 0.00 | 0.00 | 48 | 1012.4 |
| 20260509001600 | 17 | 17 | 1.6 | 4.8 | 0.00 | 0.00 | 0.00 | 49 | 1012.3 |
| 20260509001055 | 17 | 17 | 3.2 | 4.8 | 0.00 | 0.00 | 0.00 | 49 | 1012.2 |
| 20260509000554 | 17 | 342 | 0.0 | 0.0 | 0.00 | 0.00 | 0.00 | 51 | 1012.2 |
| 20260509000050 | 18 | 327 | 0.0 | 0.0 | 0.00 | 0.00 | 0.00 | 53 | 1012.2 |
| 20260508235548 | 18 | 312 | 0.0 | 1.6 | 0.00 | 0.00 | 0.00 | 43 | 1012.2 |
| 20260508235044 | 18 | 320 | 0.0 | 0.0 | 0.00 | 0.00 | 0.00 | 45 | 1012.1 |
| 20260508234541 | 18 | 319 | 0.0 | 1.6 | 0.00 | 0.00 | 0.00 | 44 | 1012.0 |
| 20260508234038 | 18 | 5 | 1.6 | 1.6 | 0.00 | 0.00 | 0.00 | 44 | 1012.2 |
| 20260508233537 | 18 | 323 | 1.6 | 1.6 | 0.00 | 0.00 | 0.00 | 44 | 1012.0 |
| 20260508233034 | 19 | 337 | 1.6 | 3.2 | 0.00 | 0.00 | 0.00 | 43 | 1012.0 |
| 20260508232531 | 19 | 290 | 0.0 | 1.6 | 0.00 | 0.00 | 0.00 | 41 | 1011.8 |
| 20260508232028 | 19 | 232 | 1.6 | 3.2 | 0.00 | 0.00 | 0.00 | 39 | 1012.0 |
| 20260508231526 | 18 | 250 | 4.8 | 4.8 | 0.00 | 0.00 | 0.00 | 41 | 1012.1 |
| 20260508231023 | 18 | 218 | 6.4 | 9.7 | 0.00 | 0.00 | 0.00 | 40 | 1012.1 |
| 20260508230520 | 18 | 238 | 8.0 | 12.9 | 0.00 | 0.00 | 0.00 | 40 | 1011.8 |
| 20260508230016 | 19 | 248 | 8.0 | 9.7 | 0.00 | 0.00 | 0.00 | 40 | 1011.8 |
| 20260508225513 | 19 | 220 | 3.2 | 6.4 | 0.00 | 0.00 | 0.00 | 43 | 1011.9 |
| 20260508225010 | 19 | 239 | 9.7 | 11.3 | 0.00 | 0.00 | 0.00 | 39 | 1011.9 |
| 20260508224508 | 20 | 234 | 6.4 | 6.4 | 0.00 | 0.00 | 0.00 | 39 | 1011.9 |
| 20260508224005 | 20 | 214 | 6.4 | 6.4 | 0.00 | 0.00 | 0.00 | 37 | 1012.0 |
| 20260508223503 | 19 | 192 | 4.8 | 6.4 | 0.00 | 0.00 | 0.00 | 39 | 1012.1 |
| 20260508223000 | 20 | 183 | 6.4 | 12.9 | 0.00 | 0.00 | 0.00 | 38 | 1012.0 |
| 20260508222457 | 20 | 226 | 1.6 | 4.8 | 0.00 | 0.00 | 0.00 | 39 | 1011.9 |
| 20260508221953 | 20 | 210 | 3.2 | 6.4 | 0.00 | 0.00 | 0.00 | 38 | 1012.0 |
| 20260508221450 | 20 | 173 | 6.4 | 11.3 | 0.00 | 0.00 | 0.00 | 37 | 1011.9 |
| 20260508220946 | 20 | 237 | 9.7 | 12.9 | 0.00 | 0.00 | 0.00 | 36 | 1011.8 |
| 20260508220443 | 21 | 262 | 8.0 | 12.9 | 0.00 | 0.00 | 0.00 | 37 | 1012.1 |
| 20260508215939 | 20 | 140 | 3.2 | 9.7 | 0.00 | 0.00 | 0.00 | 36 | 1011.7 |
| 20260508215436 | 20 | 207 | 4.8 | 12.9 | 0.00 | 0.00 | 0.00 | 37 | 1011.9 |
| 20260508214932 | 20 | 231 | 8.0 | 14.5 | 0.00 | 0.00 | 0.00 | 36 | 1011.9 |
| 20260508214431 | 20 | 139 | 8.0 | 14.5 | 0.00 | 0.00 | 0.00 | 38 | 1012.0 |
| 20260508213926 | 20 | 178 | 4.8 | 9.7 | 0.00 | 0.00 | 0.00 | 36 | 1012.2 |
| 20260508213424 | 20 | 236 | 9.7 | 12.9 | 0.00 | 0.00 | 0.00 | 37 | 1012.1 |
| 20260508212919 | 20 | 198 | 1.6 | 12.9 | 0.00 | 0.00 | 0.00 | 38 | 1012.2 |
| 20260508212416 | 20 | 210 | 8.0 | 9.7 | 0.00 | 0.00 | 0.00 | 37 | 1012.1 |
| 20260508211912 | 20 | 233 | 9.7 | 14.5 | 0.00 | 0.00 | 0.00 | 38 | 1012.3 |
| 20260508211407 | 20 | 197 | 6.4 | 6.4 | 0.00 | 0.00 | 0.00 | 37 | 1012.2 |
| 20260508210905 | 20 | 242 | 8.0 | 12.9 | 0.00 | 0.00 | 0.00 | 36 | 1012.3 |
| 20260508210401 | 20 | 231 | 3.2 | 11.3 | 0.00 | 0.00 | 0.00 | 35 | 1012.0 |
| 20260508205858 | 20 | 214 | 11.3 | 14.5 | 0.00 | 0.00 | 0.00 | 36 | 1012.0 |
| 20260508205355 | 20 | 191 | 6.4 | 12.9 | 0.00 | 0.00 | 0.00 | 35 | 1012.2 |
| 20260508204851 | 20 | 232 | 9.7 | 14.5 | 0.00 | 0.00 | 0.00 | 35 | 1012.3 |
| 20260508204348 | 20 | 193 | 6.4 | 11.3 | 0.00 | 0.00 | 0.00 | 36 | 1012.3 |
| 20260508203844 | 20 | 193 | 11.3 | 20.9 | 0.00 | 0.00 | 0.00 | 34 | 1012.3 |
| 20260508203340 | 20 | 215 | 16.1 | 20.9 | 0.00 | 0.00 | 0.00 | 34 | 1012.3 |
| 20260508202836 | 20 | 169 | 12.9 | 22.5 | 0.00 | 0.00 | 0.00 | 35 | 1012.3 |
| 20260508202334 | 20 | 155 | 8.0 | 16.1 | 0.00 | 0.00 | 0.00 | 35 | 1012.3 |
| 20260508201831 | 20 | 150 | 9.7 | 16.1 | 0.00 | 0.00 | 0.00 | 33 | 1012.4 |
| 20260508201328 | 20 | 165 | 6.4 | 16.1 | 0.00 | 0.00 | 0.00 | 34 | 1012.6 |
| 20260508200824 | 21 | 177 | 6.4 | 22.5 | 0.00 | 0.00 | 0.00 | 34 | 1012.2 |
| 20260508200321 | 21 | 245 | 9.7 | 30.6 | 0.00 | 0.00 | 0.00 | 33 | 1012.2 |
| 20260508195817 | 20 | 132 | 9.7 | 16.1 | 0.00 | 0.00 | 0.00 | 33 | 1012.3 |
| 20260508195314 | 20 | 140 | 8.0 | 22.5 | 0.00 | 0.00 | 0.00 | 33 | 1012.3 |
| 20260508194810 | 20 | 147 | 11.3 | 14.5 | 0.00 | 0.00 | 0.00 | 33 | 1012.5 |
| 20260508194307 | 20 | 143 | 14.5 | 20.9 | 0.00 | 0.00 | 0.00 | 33 | 1012.6 |
| 20260508193804 | 20 | 167 | 14.5 | 22.5 | 0.00 | 0.00 | 0.00 | 33 | 1012.5 |
| 20260508193301 | 21 | 112 | 12.9 | 17.7 | 0.00 | 0.00 | 0.00 | 33 | 1012.6 |
| 20260508192757 | 20 | 159 | 11.3 | 17.7 | 0.00 | 0.00 | 0.00 | 33 | 1012.8 |
| 20260508192254 | 21 | 145 | 11.3 | 14.5 | 0.00 | 0.00 | 0.00 | 33 | 1012.7 |
| 20260508191751 | 20 | 166 | 12.9 | 25.7 | 0.00 | 0.00 | 0.00 | 32 | 1012.9 |
| 20260508191248 | 20 | 131 | 4.8 | 9.7 | 0.00 | 0.00 | 0.00 | 33 | 1013.1 |
| 20260508190746 | 20 | 117 | 3.2 | 4.8 | 0.00 | 0.00 | 0.00 | 33 | 1013.1 |
| 20260508190241 | 19 | 125 | 1.6 | 11.3 | 0.00 | 0.00 | 0.00 | 34 | 1013.3 |